Location: Ferintosh
(52.7647°N, 112.9692°W)
Time: 18:23:16
(UTC+00:00)

Explorer 7 - Pass Details

Date: 26 May 2024
Orbit: 466 x 622 km, 50.3° (Epoch: 15 June)

Event Time Altitude Azimuth Distance (km) Brightness Sun altitude
Rises 10:48:22 0° 277° (W) 2,646 9.9 -4.3°
Reaches altitude 10° 10:51:07 10° 257° (WSW) 1,789 8.9 -4.0°
Maximum altitude 10:53:48 17° 216° (SW) 1,418 8.3 -3.7°
Drops below altitude 10° 10:56:34 10° 175° (S) 1,849 9.2 -3.4°
Sets 10:59:29 0° 155° (SSE) 2,778 10.2 -3.1°
